Regional Weather Roundup
Issued by NWS Charleston, SC

Current Version | Previous Version | Text Only | Print | Product List | Glossary Off
Versions: 1 2 3 4 5 6 7 8 9 10 11 12 13 14 15 16 17 18 19 20 21 22 23 24 25 26 27 28 29 30 31 32 33 34 35 36 37 38 39 40 41 42 43 44 45 46 47 48 49 50

486
ASUS42 KCHS 251213
RWRCHS

REGIONAL WEATHER ROUNDUP
NATIONAL WEATHER SERVICE CHARLESTON SC
800 AM EDT MON JUL 25 2016

NOTE: "FAIR" INDICATES FEW OR NO CLOUDS BELOW 12,000 FEET WITH NO
SIGNIFICANT WEATHER AND/OR OBSTRUCTIONS TO VISIBILITY.

NOT ALL STATIONS ARE QUALITY CONTROLLED. USE DATA WITH CAUTION...
ESPECIALLY DEWPOINT OBSERVATIONS.

SCZ027-030-031-034>040-042>050-251300-
...SOUTHEAST SOUTH CAROLINA...

CITY           SKY/WX    TMP DP  RH WIND       PRES   REMARKS
N CHARLESTON   MOSUNNY   83  75  77 SW3       30.09R HX  90
6HR MIN TEMP:  78; 6HR MAX TEMP:  83;

WATERFRONT PRK   N/A     83  77  81 VRB3      30.06R HX  92
MOUNT PLEASANT FAIR      79  79 100 CALM      30.09R
JOHNS ISLAND   FAIR      84  77  79 CALM      30.09R HX  94
PINOPOLIS        N/A     81  77  89 CALM      30.02R
MONCKS CORNER  FAIR      75  73  94 CALM      30.09S
SUMMERVILLE    NOT AVBL
BEAUFORT MCAS  MOSUNNY   82  75  79 CALM      30.09R
6HR MIN TEMP:  76; 6HR MAX TEMP:  82;

BEAUFORT ARPT  FAIR      81  77  89 CALM      30.08R
HILTON HEAD IS MOSUNNY   81  79  94 CALM      30.09R
WALTERBORO     SUNNY     81  79  94 CALM      30.10R
ALLENDALE      FAIR      79  73  83 CALM      30.08R

...SOUTHERN MIDLANDS AND PEE DEE...

CITY           SKY/WX    TMP DP  RH WIND       PRES   REMARKS
GEORGETOWN     CLOUDY    79  77  94 CALM      30.10R
KINGSTREE      FAIR      77  73  88 CALM      30.09R
ORANGEBURG     SUNNY     78  74  87 S6        30.08S
6HR MIN TEMP:  76; 6HR MAX TEMP:  78;

BARNWELL       NOT AVBL
AIKEN          FAIR      77  70  78 S5        30.11S
MANNING        FAIR      79  72  78 SW3       30.09R
COLUMBIA       CLOUDY    81  72  74 SW6       30.07R
6HR MIN TEMP:  78; 6HR MAX TEMP:  82;

SUMTER         SUNNY     79  73  82 S6        30.05S
6HR MIN TEMP:  77; 6HR MAX TEMP:  80;

FLORENCE       CLOUDY    80  75  84 SW6       30.08S
6HR MIN TEMP:  78; 6HR MAX TEMP:  80;

MYRTLE BEACH   NOT AVBL
N MYRTLE BEACH SUNNY     83  77  82 SW7       30.08S HX  92
6HR MIN TEMP:  80; 6HR MAX TEMP:  83;


$$

GAZ063-065-086>088-099>101-113>116-118-119-134>141-150-251300-
...SOUTHEAST GEORGIA...

CITY           SKY/WX    TMP DP  RH WIND       PRES   REMARKS
SAVANNAH ARPT  MOSUNNY   78  74  87 CALM      30.08R
6HR MIN TEMP:  74; 6HR MAX TEMP:  79;

HUNTER AAF     SUNNY     79  79 100 W2        30.06R
6HR MIN TEMP:  74; 6HR MAX TEMP:  80;

FORT STEWART   SUNNY     75  73  92 CALM      30.06R
6HR MIN TEMP:  72; 6HR MAX TEMP:  75;

STATESBORO     SUNNY     78  74  90 CALM      30.08S
SYLVANIA       NOT AVBL
CLAXTON        FAIR      74  74 100 CALM      30.08S

...CSRA...CENTRAL AND FAR SOUTHEAST GEORGIA...

CITY           SKY/WX    TMP DP  RH WIND       PRES   REMARKS
THOMSON        NOT AVBL
AUGUSTA-BUSH   MOSUNNY   76  73  91 E3        30.07R
6HR MIN TEMP:  74; 6HR MAX TEMP:  78;

AUGUSTA-DANIEL MOSUNNY   79  71  76 S7        30.08S
SWAINSBORO     FAIR      75  72  88 S3        30.09R
VIDALIA        SUNNY     77  72  83 S3        30.09R
EASTMAN        FAIR      76  76  99 CALM      30.10S
HAZLEHURST     FAIR      77  75  94 CALM      30.07S
ALMA           PTSUNNY   75  71  87 S3        30.08R
6HR MIN TEMP:  71; 6HR MAX TEMP:  75;

WAYCROSS       SUNNY     77  75  94 CALM      30.09R
JESUP          FAIR      73  73 100 CALM      30.09R
BAXLEY         FAIR      75  75 100 CALM      30.08R
BRUNSWICK      SUNNY     79  75  89 CALM      30.10R
SAINT SIMONS   SUNNY     81  73  76 W5        30.08R
6HR MIN TEMP:  79; 6HR MAX TEMP:  83;


$$

SCZ027-028-034-036>038-045-046-048>050-GAZ119-141-251300-
...LAKE AND SUPPLEMENTAL COASTAL OBSERVATIONS...

STATION/POSITION TIME  TEMP    WIND        PRES    WAVE   SWELL
                       AIR SEA DIR/SP/G            HT/PER HT/PER/DIR
                 (UTC) (F)     (DEG/KT/KT) (MB)    (FT/S) (FT/S/D)
WINYAH BAY       NOT AVBL
LAKE MURRAY      1100   81     210/  7/  9 1017.3R
ACE BASIN NERRS  NOT AVBL
FORT PULASKI     1100   81 87  250/  2/  3 1018.6R
SAPELO ISLAND    1100   80     200/  4     1018.0R

$$

ANZ835-935-AMZ111-154-330-350-352-354-370-450-454-472-251300-
...C-MAN AND BUOY OBSERVATIONS...

STATION/POSITION TIME  TEMP    WIND        PRES    WAVE   SWELL
                       AIR SEA DIR/SP/G            HT/PER HT/PER/DIR
                 (UTC) (F)     (DEG/KT/KT) (MB)    (FT/S) (FT/S/D)
BUOY 41004       1150   85 86  220/  8/ 10 1018.6R   2/ 8   2/130/ 8
BUOY 41008       1150   84 86  200/  8/ 10 1018.5R   2/ 8   2/ 80/ 8
FOLLY BEACH CMAN 1200   84     220/ 10/ 11 1018.9R
CAPERS NEARSHORE 1108   84 83  230/ 10/ 14 1018.4R
FRIPP NEARSHORE  1108   85 86  220/ 10/ 12 1017.8R


STATION/POSITION TIME  TEMP    WIND        PRES    WAVE   SWELL
                       AIR SEA DIR/SP/G            HT/PER HT/PER/DIR
                 (UTC) (F)     (DEG/KT/KT) (MB)    (FT/S) (FT/S/D)
5E ST. MARYS GA  1201      86                N/A     2/ 8
FRYING PAN BUOY  1100   84 85  210/ 12/ 14 1018.4R
BUOY 41025       1150   84 85  250/ 14/ 16 1018.5R   3/ 4   2/100/ 9
CAPE LOOKOUT NC  1100   83     240/  9/ 11 1018.3R
BUOY 41002       1150   84 84  210/  8/ 10 1019.9R   2/ 9   2/130/ 9
BUOY 41010       1120   83 86  150/  4/  6 1018.4R
ST AUGUSTINE FL  1200   78 84  210/  3/  3 1019.6R


$$




USA.gov is the U.S. government's official web portal to all federal, state and local government web resources and services.